Location: Dodgeville
(42.9600°N, 90.1300°W)
Time: 11:32:06
(UTC-05:00)

Uosat F - Visible Passes

Search period start: 20 August 2014 00:00
Search period end: 30 August 2014 00:00
Orbit: 751 x 763 km, 98.7° (Epoch: 19 August)

Date Brightness Start Highest point End Pass type
(mag) Time Alt. Az. Time Alt. Az. Time Alt. Az.
20 Aug 13.1 04:33:55 10° NE 04:38:03 25° E 04:42:09 10° SSE visible
21 Aug 14.0 03:57:38 10° ENE 03:58:30 10° E 03:59:21 10° E visible
21 Aug 11.1 05:32:56 10° NNE 05:37:58 89° WNW 05:42:58 10° SSW visible
22 Aug 12.4 04:54:05 10° NNE 04:58:46 39° E 05:03:25 10° SSE visible
23 Aug 13.7 04:16:08 10° NE 04:19:21 17° E 04:22:33 10° SE visible
24 Aug 11.6 05:14:28 10° NNE 05:19:26 61° ESE 05:24:22 10° S visible
25 Aug 13.1 04:35:57 10° NE 04:40:07 26° E 04:44:16 10° SSE visible
26 Aug 14.0 03:59:21 10° ENE 04:00:35 11° E 04:01:49 10° ESE visible
26 Aug 11.1 05:35:00 10° NNE 05:40:02 87° WNW 05:45:02 10° SSW visible
27 Aug 12.4 04:56:07 10° NNE 05:00:50 40° E 05:05:31 10° SSE visible
28 Aug 13.7 04:18:07 10° NE 04:21:25 18° E 04:24:43 10° SE visible
29 Aug 11.6 05:16:31 10° NNE 05:21:30 63° ESE 05:26:26 10° S visible
